[[{"header":{"parameterUnit":"m.s-1","parameterCategory":1,"la1":30.2991,"la2":30.254,"lo1":-89.0895,"lo2":-89.0444,"dy":0.0017,"dx":0.0017,"nx":28,"ny":28,"refTime":"2024-05-01T09:00:00:Z","depth":0,"parameterNumber":2,"parameterNumberName":"U-component_of_WINDS"},"data":[0,0,0,0,0,0,0,0,0,0,0,0,0,0,0,0,0,0,0,0,0,0,0,0,0,0,0,0,0,0,0,0,0,0,0,0,0,0,0,0,0,0,0,0,0,0,0,0,0,0,0,0,0,0,0,0,0,0,-3.6598,-3.6597,0,-3.6529,-3.6528,-3.6527,-3.6415,-3.6412,-3.641,-3.6408,-3.6338,-3.6338,-3.6338,0,0,0,0,0,0,0,0,0,0,0,0,0,-3.6634,-3.6634,-3.6598,-3.6597,-3.6596,-3.6529,-3.6528,-3.6527,-3.6415,-3.6412,-3.641,-3.6407,-3.6338,-3.6338,-3.6338,0,0,0,0,0,0,0,0,0,0,0,0,0,-3.6597,-3.6634,-3.6598,-3.6532,-3.6525,-3.6529,-3.6528,-3.6527,-3.6415,-3.6412,-3.6409,-3.6406,-3.6338,-3.6338,-3.6338,-3.64,0,0,-3.6338,-3.6338,0,0,0,0,0,0,0,0,-3.6599,-3.6596,-3.6543,-3.6537,-3.6529,-3.6477,-3.6515,-3.6484,-3.6416,-3.6457,-3.6408,-3.6405,-3.6387,-3.6382,-3.6376,-3.6397,-3.6394,-3.6338,-3.6338,-3.6338,-3.6338,0,0,0,0,0,0,0,-3.6602,-3.6598,-3.657,-3.6542,-3.6534,-3.6506,-3.6498,-3.6508,-3.644,-3.6453,-3.6445,-3.6438,-3.6382,-3.6377,-3.6374,-3.6393,-3.6338,-3.6338,-3.6338,-3.6338,-3.6462,-3.6466,0,0,0,0,0,0,-3.6614,-3.6601,-3.6573,-3.6568,-3.6557,-3.6508,-3.6499,-3.6497,-3.644,-3.6428,-3.6441,-3.6433,-3.6378,-3.6374,-3.6371,-3.644,-3.6338,-3.6338,-3.6338,-3.6459,-3.6463,-3.6467,0,0,0,0,0,0,-3.6615,-3.6613,-3.6575,-3.6582,-3.6576,-3.6511,-3.651,-3.6497,-3.6491,-3.643,-3.6418,-3.6448,-3.6375,-3.6371,-3.6394,-3.6436,-3.6338,-3.6338,-3.6455,-3.646,-3.6465,-3.658,0,0,0,0,0,0,-3.6617,-3.6614,-3.6636,-3.6584,-3.6576,-3.6599,-3.6513,-3.6498,-3.6492,-3.6481,-3.6433,-3.6422,-3.6373,-3.6395,-3.6394,-3.6434,-3.6338,-3.6451,-3.6458,-3.6463,-3.6572,-3.6588,-3.6602,0,0,0,0,0,-3.6619,-3.6671,-3.6638,-3.6635,-3.6602,-3.6602,-3.6597,-3.6539,-3.6495,-3.6518,-3.6479,-3.6424,-3.6432,-3.6398,-3.6396,-3.6437,-3.6448,-3.6456,-3.6463,-3.6565,-3.6585,-3.6601,0,0,0,0,0,0,-3.6729,-3.6663,-3.6625,-3.6662,-3.6639,-3.6583,-3.6609,-3.6562,-3.655,-3.654,-3.6469,-3.6459,-3.6492,-3.6467,-3.643,-3.6496,-3.6432,-3.6439,-3.651,-3.6528,-3.6543,-3.6547,-3.6338,0,0,0,0,0,-3.6759,-3.6764,-3.6705,-3.6744,-3.6734,-3.6674,-3.6672,-3.6629,-3.6602,-3.6591,-3.6554,-3.653,-3.6527,-3.6526,-3.652,-3.6569,-3.6557,-3.6596,-3.6611,-3.6624,-3.6631,-3.6655,-3.6672,-3.6491,-3.6491,-3.6491,0,0,-3.6818,-3.6782,-3.6789,-3.6765,-3.6742,-3.6749,-3.6666,-3.6677,-3.6682,-3.6593,-3.6612,-3.6585,-3.6553,-3.6589,-3.6603,-3.657,-3.6679,-3.6633,-3.6644,-3.6643,-3.6664,-3.6681,-3.6697,-3.6496,-3.6495,-3.6494,0,0,-3.6929,-3.6903,-3.6932,-3.6911,-3.6877,-3.6838,-3.6845,-3.6797,-3.6776,-3.6794,-3.6728,-3.6733,-3.673,-3.671,-3.67,-3.6808,-3.6756,-3.6808,-3.6885,-3.691,-3.6924,-3.6936,-3.6974,-3.6989,-3.6815,-3.6815,-3.6816,0,-3.7007,-3.7015,-3.6953,-3.6969,-3.696,-3.6881,-3.6911,-3.6893,-3.686,-3.6856,-3.6819,-3.6814,-3.6787,-3.6818,-3.6845,-3.6839,-3.6845,-3.6812,-3.6927,-3.6939,-3.6949,-3.6985,-3.6999,-3.6822,-3.6821,-3.682,-3.682,0,-3.7113,-3.712,-3.7147,-3.7117,-3.7112,-3.7135,-3.7077,-3.708,-3.7039,-3.7003,-3.7024,-3.699,-3.6976,-3.6981,-3.694,-3.7006,-3.6987,-3.694,-3.6874,-3.6974,-3.7006,-3.7019,-3.6831,-3.6829,-3.6827,-3.6825,0,0,-3.7289,-3.7227,-3.7238,-3.7223,-3.7182,-3.7186,-3.7206,-3.7193,-3.7196,-3.7177,-3.7192,-3.7192,-3.7149,-3.7137,-3.7095,-3.7117,-3.7204,-3.7067,-3.7065,-3.7093,-3.7275,-3.731,-3.7327,-3.7171,-3.7174,-3.7175,-3.7278,0,-3.7391,-3.7421,-3.7367,-3.7409,-3.7415,-3.7342,-3.7359,-3.7336,-3.7305,-3.7306,-3.7271,-3.7272,-3.7215,-3.7208,-3.7226,-3.719,-3.724,-3.7182,-3.7184,-3.7185,-3.7192,-3.7343,-3.7379,-3.7477,-3.729,-3.7292,-3.7293,0,-3.7513,-3.75,-3.7544,-3.7501,-3.7501,-3.7518,-3.7502,-3.7504,-3.7477,-3.7453,-3.7442,-3.7392,-3.7409,-3.7348,-3.737,-3.7332,-3.7331,-3.7313,-3.7316,-3.7312,-3.7244,-3.7343,-3.7507,-3.7522,-3.7313,-3.7311,-3.731,0,-3.7637,-3.7631,-3.7656,-3.7646,-3.7597,-3.761,-3.7591,-3.7561,-3.7557,-3.7544,-3.754,-3.753,-3.7524,-3.7517,-3.7466,-3.7426,-3.7496,-3.743,-3.7476,-3.7477,-3.7492,-3.7491,-3.7657,-3.7494,-3.7494,-3.7493,-3.7493,0,-3.7756,-3.7785,-3.7711,-3.7726,-3.7757,-3.7696,-3.7729,-3.7702,-3.7676,-3.7686,-3.7622,-3.7633,-3.7565,-3.7569,-3.753,-3.7555,-3.7553,-3.7534,-3.7522,-3.7538,-3.7541,-3.7535,-3.7526,-3.7497,-3.7496,-3.7496,-3.7495,0,-3.7898,-3.785,-3.7872,-3.7825,-3.7813,-3.7839,-3.7798,-3.781,-3.7776,-3.7789,-3.7788,-3.7734,-3.7735,-3.7685,-3.7675,-3.7648,-3.769,-3.7668,-3.7699,-3.7692,-3.774,-3.7736,-3.7907,-3.7926,-3.7752,-3.7754,-3.7755,0,-3.7976,-3.7997,-3.7952,-3.7954,-3.7937,-3.7941,-3.7937,-3.7879,-3.7878,-3.785,-3.7866,-3.7862,-3.7855,-3.786,-3.782,-3.7813,-3.7789,-3.7849,-3.7787,-3.7803,-3.7789,-3.7787,-3.7789,-3.7862,-3.7864,-3.7866,-3.7867,0,-3.8119,-3.8095,-3.8091,-3.8081,-3.8078,-3.8067,-3.8051,-3.8056,-3.7993,-3.7995,-3.7995,-3.799,-3.7981,-3.7978,-3.7964,-3.7944,-3.7895,-3.7888,-3.7898,-3.7913,-3.793,-3.7921,-3.7734,-3.7883,-3.7882,-3.788,-3.788,-3.7879,-3.8231,-3.8246,-3.8218,-3.8216,-3.8199,-3.8187,-3.8196,-3.8164,-3.8163,-3.8151,-3.8118,-3.8124,-3.8098,-3.8074,-3.8059,-3.8063,-3.8033,-3.8048,-3.8051,-3.8055,-3.8064,-3.7932,-3.806,-3.806,-3.8059,-3.8059,-3.8059,0,-3.837,-3.8349,-3.8348,-3.8329,-3.8329,-3.8284,-3.8266,-3.8268,-3.8274,-3.8255,-3.825,-3.8251,-3.8248,-3.821,-3.8202,-3.8213,-3.8191,-3.8213,-3.8211,-3.8207,-3.8092,-3.8084,-3.8232,-3.8232,-3.8232,-3.8232,-3.8231,-3.8231,-3.8442,-3.8466,-3.8439,-3.8454,-3.8433,-3.8438,-3.8431,-3.842,-3.8404,-3.8408,-3.8406,-3.8381,-3.8353,-3.8344,-3.834,-3.8329,-3.8328,-3.8358,-3.834,-3.8232,-3.8215,-3.8199,-3.8191,-3.8359,-3.8359,-3.8454,-3.8455,-3.8456]},{"header":{"parameterUnit":"m.s-1","parameterCategory":1,"la1":30.2991,"la2":30.254,"lo1":-89.0895,"lo2":-89.0444,"dy":0.0017,"dx":0.0017,"nx":28,"ny":28,"refTime":"2024-05-01T09:00:00:Z","depth":0,"parameterNumber":3,"parameterNumberName":"V-component_of_WINDS"},"data":[0,0,0,0,0,0,0,0,0,0,0,0,0,0,0,0,0,0,0,0,0,0,0,0,0,0,0,0,0,0,0,0,0,0,0,0,0,0,0,0,0,0,0,0,0,0,0,0,0,0,0,0,0,0,0,0,0,0,2.3484,2.3482,0,2.3361,2.3359,2.3358,2.332,2.332,2.3321,2.3321,2.3192,2.3189,2.3185,0,0,0,0,0,0,0,0,0,0,0,0,0,2.3686,2.3682,2.3484,2.3482,2.3481,2.3361,2.3359,2.3358,2.332,2.332,2.3321,2.3322,2.3194,2.3189,2.3184,0,0,0,0,0,0,0,0,0,0,0,0,0,2.3584,2.3681,2.3484,2.3447,2.3443,2.3361,2.3359,2.3357,2.3319,2.332,2.3321,2.3322,2.3195,2.319,2.3184,2.3129,0,0,2.3165,2.3163,0,0,0,0,0,0,0,0,2.359,2.3577,2.3454,2.345,2.3445,2.3357,2.3383,2.328,2.3319,2.3366,2.3321,2.3323,2.3246,2.3236,2.3211,2.3123,2.3117,2.3165,2.3161,2.3159,2.3157,0,0,0,0,0,0,0,2.3597,2.3582,2.3435,2.3453,2.3447,2.3437,2.3424,2.3364,2.3302,2.3362,2.3359,2.3345,2.3244,2.3217,2.3208,2.3115,2.3165,2.316,2.3156,2.3154,2.298,2.2979,0,0,0,0,0,0,2.361,2.3588,2.3439,2.3431,2.3521,2.3433,2.3418,2.3384,2.3303,2.3292,2.3345,2.3344,2.3227,2.3215,2.3203,2.3135,2.3159,2.3153,2.315,2.2981,2.298,2.2979,0,0,0,0,0,0,2.3615,2.3597,2.3444,2.3509,2.3489,2.3428,2.3391,2.3381,2.3354,2.329,2.3279,2.3328,2.3227,2.3211,2.3149,2.313,2.315,2.3145,2.2982,2.2981,2.298,2.2999,0,0,0,0,0,0,2.3621,2.3599,2.3577,2.3509,2.3485,2.3391,2.3389,2.3378,2.3344,2.3342,2.3272,2.3261,2.3226,2.3158,2.3143,2.3122,2.314,2.2984,2.2982,2.298,2.2999,2.2998,2.2997,0,0,0,0,0,2.3628,2.3586,2.3576,2.3558,2.3456,2.339,2.3377,2.3339,2.3343,2.3321,2.328,2.3263,2.3136,2.3152,2.3134,2.3112,2.2985,2.2982,2.298,2.3,2.2998,2.2997,0,0,0,0,0,0,2.3651,2.3576,2.3564,2.3499,2.3452,2.3384,2.3354,2.3338,2.3287,2.3287,2.3242,2.3226,2.3168,2.3134,2.3153,2.3057,2.306,2.3054,2.3081,2.3079,2.3077,2.3086,2.3135,0,0,0,0,0,2.3649,2.3602,2.3539,2.3487,2.3464,2.3414,2.3383,2.3359,2.3308,2.3287,2.3242,2.3192,2.3141,2.3108,2.3058,2.2996,2.2981,2.2972,2.2971,2.297,2.2965,2.2933,2.2929,2.2972,2.2972,2.2972,0,0,2.3643,2.3597,2.3569,2.3491,2.3451,2.3404,2.3397,2.3346,2.3311,2.3279,2.3217,2.3183,2.3125,2.3064,2.3034,2.3034,2.2951,2.2967,2.2967,2.2962,2.293,2.2926,2.2923,2.297,2.297,2.2971,0,0,2.3608,2.3568,2.3522,2.3484,2.3425,2.3393,2.3383,2.3318,2.3295,2.3234,2.321,2.3168,2.308,2.3041,2.3009,2.2967,2.295,2.2952,2.2944,2.2913,2.291,2.2907,2.2893,2.2888,2.2947,2.2947,2.2947,0,2.3608,2.3536,2.35,2.3452,2.3419,2.3391,2.3345,2.331,2.3237,2.3215,2.3217,2.311,2.3068,2.2998,2.2989,2.2964,2.2951,2.2958,2.2914,2.291,2.2906,2.2893,2.2887,2.2948,2.2948,2.2948,2.2948,0,2.3539,2.349,2.346,2.3394,2.3358,2.3311,2.3269,2.3237,2.3218,2.3186,2.3125,2.3076,2.3016,2.2999,2.2977,2.2927,2.2929,2.2923,2.2924,2.2904,2.289,2.2884,2.2949,2.2949,2.2948,2.2948,0,0,2.351,2.3429,2.3419,2.339,2.3326,2.3288,2.3241,2.3185,2.316,2.3112,2.3073,2.3003,2.2998,2.2962,2.2937,2.2911,2.2883,2.2908,2.2906,2.2905,2.2826,2.2831,2.2826,2.2872,2.2871,2.287,2.2832,0,2.3468,2.3384,2.3353,2.3284,2.324,2.3216,2.3176,2.3133,2.3103,2.3062,2.3029,2.298,2.2977,2.2956,2.2929,2.2892,2.2866,2.2894,2.2835,2.2833,2.2849,2.2818,2.2822,2.2787,2.2826,2.2825,2.2824,0,2.3405,2.336,2.3288,2.3234,2.3214,2.3178,2.3127,2.3087,2.304,2.302,2.2984,2.2962,2.2914,2.2921,2.2855,2.2875,2.285,2.2829,2.2827,2.2818,2.2827,2.2809,2.2775,2.277,2.2815,2.2816,2.2817,0,2.3393,2.3314,2.3262,2.3238,2.3173,2.3149,2.3121,2.3074,2.3044,2.3,2.298,2.293,2.2902,2.2865,2.2831,2.2838,2.2769,2.2772,2.2751,2.2752,2.2736,2.2737,2.2697,2.2721,2.2721,2.2721,2.2721,0,2.3347,2.3304,2.3256,2.3223,2.3175,2.3141,2.3095,2.3065,2.3025,2.2987,2.2964,2.2929,2.2887,2.2847,2.282,2.2771,2.2758,2.2742,2.2735,2.2743,2.2745,2.2725,2.2726,2.272,2.272,2.272,2.272,0,2.3324,2.329,2.3231,2.3177,2.3162,2.313,2.3083,2.3052,2.3023,2.2976,2.2963,2.2918,2.287,2.2834,2.2771,2.2753,2.2702,2.2694,2.2718,2.2714,2.2696,2.2699,2.2641,2.2632,2.2662,2.2662,2.2662,0,2.3297,2.3264,2.3207,2.3181,2.3154,2.3112,2.3082,2.3049,2.3019,2.2966,2.2941,2.2893,2.2852,2.2777,2.2739,2.2692,2.2683,2.2667,2.2675,2.2686,2.2684,2.2686,2.2683,2.2665,2.2665,2.2664,2.2664,0,2.3253,2.3239,2.3197,2.3152,2.3118,2.3079,2.304,2.3021,2.2981,2.2949,2.2901,2.287,2.2809,2.2761,2.2711,2.2683,2.2667,2.2663,2.2655,2.2663,2.2678,2.2671,2.2714,2.2663,2.2663,2.2663,2.2663,2.2663,2.3226,2.3197,2.3154,2.311,2.3079,2.3045,2.3013,2.2983,2.2943,2.2891,2.2875,2.2826,2.2784,2.2715,2.2687,2.2649,2.2649,2.2638,2.2635,2.2633,2.2634,2.2686,2.264,2.264,2.264,2.264,2.264,0,2.3182,2.3154,2.3114,2.3063,2.3029,2.3021,2.2979,2.2951,2.2909,2.2871,2.2833,2.278,2.2735,2.2696,2.265,2.2627,2.2619,2.2616,2.2617,2.2611,2.2637,2.2648,2.2624,2.2624,2.2624,2.2624,2.2624,2.2624,2.3154,2.3105,2.3087,2.3024,2.2997,2.295,2.2927,2.2896,2.2867,2.2809,2.2773,2.2748,2.2711,2.2663,2.2622,2.2612,2.2596,2.2595,2.2583,2.2607,2.2609,2.2611,2.2621,2.2591,2.2591,2.256,2.256,2.2559]}]]